Weather History for West Plains, MO

Change the Weather History Date:

Thursday, November 22, 2012

  Actual Average Record
Temperature  
Mean Temperature 55 °F 44 °F  
Max Temperature 66 °F 54 °F 75 °F (1973)
Min Temperature 44 °F 34 °F 8 °F (1964)
Degree Days  
Heating Degree Days 10 21  
Month to date heating degree days 381 367  
Since 1 July heating degree days 749 670  
Cooling Degree Days 0 0  
Month to date cooling degree days 0 0  
Year to date cooling degree days 1739 1352  
Growing Degree Days 4 (Base 50)    
Moisture  
Dew Point 46 °F    
Average Humidity 77    
Maximum Humidity 94    
Minimum Humidity 45    
Precipitation  
Precipitation 0.30 in 0.16 in 4.42 in (1963)
Month to date precipitation 1.63 3.32  
Year to date precipitation 29.89 41.32  
Sea Level Pressure  
Sea Level Pressure 30.10 in    
Wind  
Wind Speed 7 mph (SSW)    
Max Wind Speed 17 mph    
Max Gust Speed 24 mph    
Visibility 6 miles    
Events Rain , Thunderstorm    
T = Trace of Precipitation, MM = Missing Value Source: NWS Daily Summary

Daily Weather History Graph

Daily Weather History Graph

Search for Another Location

Airport:

Trip Planner

Search our weather history database for the weather conditions in past years. The results will help you decide how hot, cold, wet, or windy it might be!

Date:

Astronomy

Nov. 22, 2012 Rise Set
Actual Time 6:53 AM CST 4:53 PM CST
Civil Twilight 6:25 AM CST 5:21 PM CST
Nautical Twilight 5:53 AM CST 5:53 PM CST
Astronomical Twilight 5:22 AM CST 6:24 PM CST
Moon 1:33 PM CST (11/22) 1:21 AM CST (11/22)
Length of Visible Light 10h 56m
Length of Day
10h 00m
Waxing Gibbous, 71% of the Moon is Illuminated
Nov 22
Waxing Gibbous
Nov 28
Full
Dec 6
Last Quarter
Dec 13
New
Dec 19
First Quarter

Hourly Weather History & Observations

Time (CST) Temp. Windchill Dew Point Humidity Pressure Visibility Wind Dir Wind Speed Gust Speed Precip Events Conditions
12:53 AM 46.9 °F - 42.1 °F 83% 30.16 in 6.0 mi South 3.5 mph - N/A   Haze
1:53 AM 48.0 °F - 43.0 °F 83% 30.15 in 6.0 mi South 4.6 mph - N/A   Haze
2:53 AM 45.0 °F 43.5 °F 41.0 °F 86% 30.15 in 5.0 mi SSE 3.5 mph - 0.01 in   Clear
3:53 AM 45.0 °F - 41.0 °F 86% 30.13 in 4.0 mi Calm Calm - N/A   Clear
4:53 AM 46.0 °F 43.9 °F 42.1 °F 86% 30.13 in 4.0 mi SSE 4.6 mph - N/A   Clear
5:53 AM 45.0 °F 42.6 °F 42.1 °F 90% 30.14 in 4.0 mi SSE 4.6 mph - N/A   Clear
6:49 AM 44.6 °F 43.1 °F 42.8 °F 93% 30.13 in 2.5 mi SSE 3.5 mph - N/A   Clear
6:53 AM 45.0 °F 43.5 °F 42.1 °F 90% 30.14 in 2.5 mi SSE 3.5 mph - N/A   Clear
7:53 AM 46.0 °F - 43.0 °F 89% 30.14 in 2.0 mi Calm Calm - N/A   Clear
8:14 AM 46.4 °F - 42.8 °F 87% 30.14 in 3.0 mi Calm Calm - N/A   Clear
8:53 AM 50.0 °F - 45.0 °F 83% 30.14 in 5.0 mi South 6.9 mph - N/A   Haze
9:53 AM 55.9 °F - 45.0 °F 67% 30.14 in 10.0 mi SSW 10.4 mph - N/A   Clear
10:53 AM 57.9 °F - 45.0 °F 62% 30.12 in 10.0 mi SSW 11.5 mph - N/A   Clear
11:53 AM 60.1 °F - 45.0 °F 57% 30.09 in 10.0 mi SSW 10.4 mph - N/A   Clear
12:53 PM 63.0 °F - 45.0 °F 52% 30.07 in 10.0 mi South 8.1 mph - N/A   Clear
1:53 PM 64.9 °F - 43.0 °F 45% 30.04 in 10.0 mi SSW 10.4 mph 24.2 mph N/A   Clear
2:53 PM 64.9 °F - 43.0 °F 45% 30.02 in 10.0 mi South 11.5 mph 21.9 mph N/A   Clear
3:53 PM 63.0 °F - 43.0 °F 48% 30.03 in 10.0 mi SSW 15.0 mph 20.7 mph N/A   Clear
4:53 PM 60.1 °F - 44.1 °F 55% 30.04 in 10.0 mi South 9.2 mph - N/A   Scattered Clouds
5:53 PM 59.0 °F - 45.0 °F 60% 30.04 in 10.0 mi SSW 6.9 mph - N/A   Mostly Cloudy
6:53 PM 57.9 °F - 45.0 °F 62% 30.05 in 10.0 mi South 4.6 mph - 0.00 in   Overcast
7:53 PM 57.0 °F - 45.0 °F 64% 30.06 in 10.0 mi WSW 4.6 mph - N/A   Mostly Cloudy
8:27 PM 53.6 °F - 48.2 °F 82% 30.11 in 3.0 mi NW 8.1 mph - 0.04 in Rain , Thunderstorm Rain
8:42 PM 53.6 °F - 48.2 °F 82% 30.11 in 3.0 mi West 5.8 mph - 0.07 in Rain Rain
8:49 PM 53.6 °F - 50.0 °F 88% 30.11 in 3.0 mi West 5.8 mph - 0.10 in Rain , Thunderstorm Rain
8:53 PM 53.1 °F - 50.0 °F 89% 30.10 in 2.5 mi WSW 4.6 mph - 0.11 in Rain , Thunderstorm Heavy Rain
9:13 PM 53.6 °F - 50.0 °F 88% 30.11 in 1.8 mi SW 5.8 mph - 0.09 in Rain Heavy Rain
9:23 PM 53.6 °F - 51.8 °F 94% 30.11 in 2.0 mi SSW 5.8 mph - 0.14 in Rain Rain
9:40 PM 53.6 °F - 51.8 °F 94% 30.11 in 5.0 mi SW 8.1 mph 17.3 mph 0.17 in Rain Light Rain
9:53 PM 54.0 °F - 51.1 °F 90% 30.10 in 4.0 mi SW 8.1 mph - 0.19 in Rain Light Rain
10:53 PM 53.1 °F - 51.1 °F 93% 30.09 in 8.0 mi SW 6.9 mph - 0.00 in   Overcast
11:53 PM 53.1 °F - 51.1 °F 93% 30.12 in 7.0 mi West 6.9 mph - N/A   Overcast